1 967 00:05:59 1080p Ball Gag Bdsm Porn Videos Online
1 967 00:05:59 1080p
1 967 00:05:59 1080p The One Chain Prison
1 967 00:05:59 1080p The One Chain Prison
1 054 00:41:23 720p Cadence Lux Cock Hungry Slut Takes A Greedy Beating From Charles Dera
1 012 00:55:03 720p Halloween Party Surprise Kayla Paige Returns to Whipped Ass!
959 01:00:36 720p Doctor's Orders Paige Owens Fucked and Fisted by Tommy Pistol
768 00:48:03 720p Lola Fae - The Convenient Wife (05.10.2018)
913 00:54:06 720p Rejected Ruined
913 00:54:06 720p Rejected Ruined
913 00:54:06 720p Rejected Ruined
925 01:34:45 540p Mommy's Girl Anal Slut Didn't Save Enough Pussy For Step - Mommy
1 103 00:07:57 1080p Ulysse doesn't like to be touched
1 448 00:44:16 720p Daisy Stone - Breaking Up Is Never Easy (12.10.2018)
1 680 00:51:54 1080p The Unyielding Octavia in Red
1 680 00:51:54 1080p The Unyielding Octavia in Red
1 680 00:51:54 1080p The Unyielding Octavia in Red
1 680 00:51:54 1080p The Unyielding Octavia in Red
1 680 00:51:54 1080p The Unyielding Octavia in Red
1 093 00:55:47 720p Quid Pro Quo Charlotte Sartre Fucked and Beaten in Bondage
1 093 00:55:47 720p Quid Pro Quo Charlotte Sartre Fucked and Beaten in Bondage
674 00:35:02 1080p I'm a Sponge for all your rage, sir
881 01:00:16 720p Worthless Fucking Whore Kate Kennedy is Used and Abused by Derrick Pierce
2 148 00:05:31 1080p Wall ornament
2 148 00:05:31 1080p Wall ornament
2 148 00:05:31 1080p Wall ornament
2 148 00:05:31 1080p Wall ornament
2 148 00:05:31 1080p Wall ornament
964 00:14:16 1080p Bay Beach Bitches
742 00:46:32 720p Vienna Black - Petite Anal Whore Vienna Black Abused And Butt Fucked In Rope Bondage (07.11.2018)
2 026 00:46:55 720p Olive Glass Busty Slut Endures Severe Bondage And Brutal Torment
2 026 00:46:55 720p Olive Glass Busty Slut Endures Severe Bondage And Brutal Torment
738 00:43:36 720p Kristen Scott - Beauty And The Beast: Kristen Scott Vs The Pope (29.11.2018)
777 00:43:36 540p Kristen Scott - Beauty And The Beast: Kristen Scott Vs The Pope (29.11.2018)
589 00:47:55 720p Sophia Grace All - Natural Blonde Power Fucked in Rope Bondage
888 00:55:16 720p Everyone Has Their Price Lexi Lore Gives it All Up for Dirty Money
718 00:42:00 720p Ryder Rey Bound And Tormented For The First Time
718 00:42:00 720p Ryder Rey Bound And Tormented For The First Time
714 00:58:07 720p Kendra Heart Take My Holes, Please
1 300 01:12:24 1080p Domme Destruction
1 162 00:45:41 720p Kissa Sins (Kissa Sins Is Dominated In Grueling Bondage / 22.11.2018)
Some Seo text for Ball Gag bdsm porn video tag.